North Pole, Alaska, United States (99705)
Lat: 64.75N, Lon: 147.35W
Wx Zone: AKZ222
Local Info
Past Weather Observations for Wednesday, September 10, 2014

NOTE: This archive is for the closest National Weather Service station to North Pole. Information may differ from the station used for current weather conditions.

Click here for Long-term Archive

Time Weather Temperature Dewpoint Humidity Pressure Winds Precip Visibility
23:56
Clear
46°F / 8°C 45°F / 7°C 93% 30.04 in
(1017 mb)
Calm - 10SM
22:56
Partly Cloudy
48°F / 9°C 45°F / 7°C 87% 30.01 in
(1016 mb)
Calm - 10SM
21:56
Overcast
54°F / 12°C 46°F / 8°C 77% 30.01 in
(1016 mb)
Calm - 10SM
20:56
Overcast
55°F / 13°C 48°F / 9°C 77% 30.01 in
(1016 mb)
Calm - 10SM
20:55
Mostly Cloudy
55°F / 13°C 48°F / 9°C 77% 30.01 in
(1016 mb)
Calm - 13SM
19:55
Mostly Cloudy
59°F / 15°C 48°F / 9°C 68% 29.98 in
(1015 mb)
Calm - 13SM
18:55
Mostly Cloudy
61°F / 16°C 48°F / 9°C 63% 29.98 in
(1015 mb)
Calm - 13SM
17:55
Mostly Cloudy
64°F / 18°C 43°F / 6°C 46% 29.98 in
(1015 mb)
Calm - 25SM
16:55
Mostly Cloudy
66°F / 19°C 41°F / 5°C 40% 29.98 in
(1015 mb)
NW 3.5 mph
(NW 6 kph)
- 25SM
15:55
Mostly Cloudy
66°F / 19°C 39°F / 4°C 37% 29.98 in
(1015 mb)
Variable 3.5 mph
(Variable 6 kph)
- 25SM
14:55
Mostly Cloudy
66°F / 19°C 41°F / 5°C 40% 29.98 in
(1015 mb)
Variable 4.6 mph
(Variable 7 kph)
- 35SM
13:55
Mostly Cloudy
64°F / 18°C 41°F / 5°C 43% 29.98 in
(1015 mb)
Variable 3.5 mph
(Variable 6 kph)
- 35SM
12:55
Mostly Cloudy
63°F / 17°C 43°F / 6°C 49% 29.98 in
(1015 mb)
Calm - 25SM
11:55
Mostly Cloudy
61°F / 16°C 43°F / 6°C 52% 29.98 in
(1015 mb)
SE 4.6 mph
(SE 7 kph)
- 25SM
10:55
Partly Cloudy
59°F / 15°C 43°F / 6°C 55% 29.98 in
(1015 mb)
Variable 4.6 mph
(Variable 7 kph)
- 25SM
09:55
Partly Cloudy
57°F / 14°C 43°F / 6°C 59% 29.98 in
(1015 mb)
SE 3.5 mph
(SE 6 kph)
- 25SM
08:55
Mostly Cloudy
52°F / 11°C 43°F / 6°C 72% 29.98 in
(1015 mb)
Calm - 13SM
07:55
Mostly Cloudy
46°F / 8°C 43°F / 6°C 87% 29.98 in
(1015 mb)
ENE 3.5 mph
(ENE 6 kph)
- 13SM
06:55
Mostly Cloudy
45°F / 7°C 41°F / 5°C 87% 29.95 in
(1014 mb)
Calm - 13SM
05:55
Mostly Cloudy
45°F / 7°C 41°F / 5°C 87% 29.95 in
(1014 mb)
Calm - 13SM
05:30
Mostly Cloudy
45°F / 7°C 41°F / 5°C 87% 29.95 in
(1014 mb)
Calm - 13SM
03:56
Mostly Cloudy
46°F / 8°C 41°F / 5°C 82% 29.95 in
(1014 mb)
Calm - 10SM
02:56
Mostly Cloudy
46°F / 8°C 41°F / 5°C 82% 29.95 in
(1014 mb)
Calm - 10SM
01:56
Partly Cloudy
46°F / 8°C 41°F / 5°C 82% 29.95 in
(1014 mb)
Calm - 10SM
00:56
Partly Cloudy
46°F / 8°C 41°F / 5°C 82% 29.92 in
(1013 mb)
Calm - 10SM
Time Weather Temperature Dewpoint Humidity Pressure Winds Precip Visibility


Weather for websites

WeatherForYou.com, LLC is not responsible for any damages or problems caused by this service. Current weather conditions are obtained from the closest station including government and personal stations which may have varying degrees of accuracy. Weather forecasts are derived from the NOAA NDFD. Like all things, this site belongs to Jesus Christ... He just trusts me to maintain it. If you have any questions or comments email webmaster@weatherforyou.com

Copyright © 2014, WeatherForYou.com LLC. All rights reserved.